Hourly Data Report for October 29, 2014

All times are specified in Local Standard Time (LST). Add 1 hour to adjust for Daylight Saving Time where and when it is observed.

SAINT JOHN A
NEW BRUNSWICK

45°18'58.000" N
65°53'24.000" W
108.80 m
8104901
71609
YSJ

Download Data

Hourly Data (October 2014)
Hourly Data Report for October 29, 2014
Temp Definition
°C
Dew Point Temp Definition
°C
Rel Hum Definition
%
Wind Dir Definition
10's deg

Wind Spd Definition
km/h
Visibility Definition
km
Stn Press Definition
kPa
Hmdx Definition


Wind Chill Definition


Weather Definition


TIME
00:00 Legend Double Dagger 8.2 4.1 75 16 16 24.1 100.54     LegendNANA
01:00 Legend Double Dagger 8.5 4.7 77 16 14 24.1 100.48     LegendNANA
02:00 Legend Double Dagger 8.2 5.2 81 16 14 24.1 100.40     Mostly Cloudy
03:00 Legend Double Dagger 8.9 5.8 81 14 17 24.1 100.35     LegendNANA
04:00 Legend Double Dagger 9.2 5.6 78 14 14 24.1 100.28     LegendNANA
05:00 Legend Double Dagger 9.6 6.3 80 15 17 24.1 100.25     Cloudy
06:00 Legend Double Dagger 10.0 7.4 84 14 17 24.1 100.21     LegendNANA
07:00 Legend Double Dagger 10.2 8.5 89 15 15 19.3 100.17     Drizzle
08:00 Legend Double Dagger 10.7 10.7 100 15 25 4.0 100.08     Rain,Fog
09:00 Legend Double Dagger 11.3 11.3 100 14 23 4.8 100.00     Rain,Fog
10:00 Legend Double Dagger 12.1 12.1 100 14 28 4.8 99.91     Drizzle,Fog
11:00 Legend Double Dagger 12.9 12.9 100 14 18 4.0 99.85     Drizzle,Fog
12:00 Legend Double Dagger 14.1 14.1 100 18 22 9.7 99.75     Drizzle,Fog
13:00 Legend Double Dagger 14.1 14.1 100 19 23 2.4 99.63     Fog
14:00 Legend Double Dagger 13.9 13.9 100 21 31 0.8 99.59     Drizzle,Fog
15:00 Legend Double Dagger 13.6 13.6 100 20 27 0.4 99.57     Fog
16:00 Legend Double Dagger 13.4 13.4 100 20 22 0.4 99.51     Fog
17:00 Legend Double Dagger 13.1 13.1 100 20 19 0.8 99.51     Fog
18:00 Legend Double Dagger 12.9 12.9 100 21 14 0.8 99.51     Fog
19:00 Legend Double Dagger 12.8 12.8 100 20 17 1.2 99.49     Drizzle,Fog
20:00 Legend Double Dagger 12.8 12.8 100 20 13 1.6 99.45     Drizzle,Fog
21:00 Legend Double Dagger 12.9 12.9 100 21 20 1.6 99.39     Drizzle,Fog
22:00 Legend Double Dagger 12.7 12.7 100 23 15 1.6 99.36     Drizzle,Fog
23:00 Legend Double Dagger 12.1 12.1 100 22 9 1.6 99.28     Drizzle,Fog

Notes on Data Quality.

Legend

  • E = Estimated
  • M = Missing
  • NA = Not Available
  • ‡ = Partner data that is not subject to review by the National Climate Archives
Date modified: